GALAXY 30 (WAAS/PRN 135)

Last updated on Thu Aug 20 2026 00:03:26 GMT+0000 (Coordinated Universal Time)

1 46114U 20056C 26231.60415751 .00000034 00000+0 00000+0 0 9997 2 46114 0.0156 102.9695 0002148 41.6207 275.8540 1.00272366 21929
UTC large
Height (km)
Speed (km/s)
/
Latitude / Longitude
Inclination (degrees)
Orbital Period (minutes)
Azimuth
Elevation
Range (km)
Doppler Factor

Next 0 passes for location: London (51.5072 / 0.1276)

No passes found over London.
GALAXY 30 (WAAS/PRN 135)